Home   Weather   Billings   Past weeks
Flag for USA

Past Weather in Billings, Montana, USA — Yesterday and Last 2 Weeks

Now
39 °F

Passing clouds.


Feels Like: 31 °F
Forecast: 46 / 14 °F
Wind: 15 mph from Southwest

Location: Billings Logan International Airport

Current Time: Apr 3, 2020 at 2:55:51 pm

Latest Report: Apr 3, 2020 at 1:53 pm


Visibility: 10 mi

Pressure: 30.07 "Hg (26.76 "Hg at 946m altitude)

Humidity: 46%

Dew Point: 20 °F

Location of BillingsLocation

Past Weather in Billings — Graph

°F

Billings Temperature Yesterday

Maximum temperature yesterday: 19 °F (at 4:53 pm)
Minimum temperature yesterday: 9 °F (at 7:53 am)
Average temperature yesterday: 14 °F

High & Low Weather Summary for the Past Weeks

 TemperatureHumidityPressure
High62 °F (Mar 30, 3:53 pm)100% (Mar 24, 7:35 pm)30.55 "Hg (Mar 24, 7:35 pm)
Low9 °F (Apr 2, 7:53 am)17% (Mar 23, 4:53 pm)29.66 "Hg (Mar 23, 10:53 pm)
Average33 °F67%29.98 "Hg
* Reported Mar 19 12:53 pm — Apr 3 12:53 pm, Billings. Weather by CustomWeather, © 2020

Note: Actual official high and low records may vary slightly from our data, if they occured in-between our weather recording intervals... More about our weather records

Billings Weather History for the Previous 24 Hours

Scroll right to see more
 ConditionsComfort  
Time TempWeatherWind HumidityBarometerVisibility
12:53 pm
Fri, Apr 3
35 °FPassing clouds.12 mph54%30.11 "Hg10 mi
11:53 am30 °FPassing clouds.8 mph59%30.16 "Hg10 mi
10:53 am26 °FPassing clouds.13 mph60%30.19 "Hg10 mi
9:53 am23 °FPassing clouds.13 mph63%30.21 "Hg10 mi
8:53 am20 °FPassing clouds.16 mph68%30.22 "Hg10 mi
7:53 am15 °FPassing clouds.8 mph77%30.24 "Hg10 mi
6:53 am13 °FPassing clouds.10 mph77%30.25 "Hg10 mi
5:53 am13 °FClear.8 mph77%30.25 "Hg10 mi
4:53 am13 °FClear.3 mph74%30.27 "Hg10 mi
3:53 am13 °FClear.No wind74%30.28 "Hg10 mi
2:53 am13 °FClear.3 mph74%30.30 "Hg10 mi
1:53 am14 °FClear.6 mph71%30.32 "Hg10 mi
12:53 am14 °FClear.8 mph71%30.32 "Hg10 mi
11:53 pm
Thu, Apr 2
15 °FClear.8 mph67%30.33 "Hg10 mi
10:53 pm15 °FClear.5 mph70%30.35 "Hg10 mi
9:53 pm16 °FClear.7 mph71%30.36 "Hg10 mi
8:53 pm17 °FClear.7 mph70%30.36 "Hg10 mi
7:53 pm19 °FPassing clouds.5 mph62%30.37 "Hg10 mi
7:09 pm19 °FScattered clouds.5 mph65%30.19 "Hg10 mi
6:53 pm19 °FPartly sunny.6 mph65%30.36 "Hg10 mi
5:24 pm19 °FPartly sunny.6 mph65%30.19 "Hg10 mi
4:53 pm19 °FScattered clouds.6 mph62%30.35 "Hg10 mi
3:53 pm18 °FPartly sunny.7 mph65%30.36 "Hg10 mi
2:53 pm17 °FPartly sunny.3 mph68%30.37 "Hg10 mi
Weather by CustomWeather, © 2020

See weather overview

Advertising